Change the Weather History Date:

Thursday, April 11, 2013

  Actual Average Record
Temperature  
Mean Temperature 36 °F -  
Max Temperature 41 °F 41 °F 46 °F (2011)
Min Temperature 30 °F 27 °F 6 °F (2007)
Degree Days  
Heating Degree Days 30    
Moisture  
Dew Point 29 °F    
Average Humidity 88    
Maximum Humidity 100    
Minimum Humidity 38    
Precipitation  
Precipitation 0.00 in - - ()
Sea Level Pressure  
Sea Level Pressure 29.69 in    
Wind  
Wind Speed 6 mph ()    
Max Wind Speed 18 mph    
Max Gust Speed 25 mph    
Visibility 5.3 miles    
Events Fog , Rain , Snow    
Averages and records for this station are not official NWS values.
T = Trace of Precipitation, MM = Missing Value Source: Averaged Metar Reports

Daily Weather History Graph

Daily Weather History Graph

Search for Another Location

Airport or City:

Trip Planner

Search our weather history database for the weather conditions in past years. The results will help you decide how hot, cold, wet, or windy it might be!

Date:

Astronomy

Apr. 11, 2013 Rise Set
Actual Time 5:28 AM EDT 7:02 PM EDT
Civil Twilight 4:55 AM EDT 7:36 PM EDT
Nautical Twilight 4:13 AM EDT 8:18 PM EDT
Astronomical Twilight 3:28 AM EDT 9:04 PM EDT
Moon 5:49 AM EDT (4/11) 8:44 PM EDT (4/11)
Length of Visible Light 14h 41m
Length of Day
13h 33m
New Moon, 2% of the Moon is Illuminated
Apr 11
New Moon
Apr 18
First Quarter
Apr 25
Full
May 2
Last Quarter
May 9
New

Hourly Weather History & Observations

Time (EDT) Temp. Windchill Dew Point Humidity Pressure Visibility Wind Dir Wind Speed Gust Speed Precip Events Conditions
12:00 AM 30.2 °F 25.4 °F 30.2 °F 100% 29.69 in 1.5 mi SW 4.6 mph - N/A   Overcast
12:56 AM 30.2 °F 24.3 °F 30.2 °F 100% 29.67 in 1.0 mi West 5.8 mph - N/A   Mist
12:57 AM 30.2 °F 24.3 °F 30.2 °F 100% 29.67 in 0.8 mi WSW 5.8 mph - N/A   Mist
1:00 AM 30.2 °F 25.4 °F 30.2 °F 100% 29.67 in 0.8 mi SW 4.6 mph - N/A   Mist
1:03 AM 30.2 °F 26.7 °F 30.2 °F 100% 29.67 in 0.8 mi SW 3.5 mph - N/A   Mist
1:26 AM 30.2 °F 26.7 °F 30.2 °F 100% 29.67 in 0.5 mi West 3.5 mph - N/A Fog Light Freezing Fog
1:40 AM 30.2 °F 26.7 °F 30.2 °F 100% 29.67 in 0.8 mi North 3.5 mph - N/A   Mist
1:51 AM 30.2 °F - 30.2 °F 100% 29.66 in 0.5 mi Calm Calm - N/A Fog Light Freezing Fog
1:53 AM 30.2 °F - 30.2 °F 100% 29.66 in 0.5 mi Variable 2.3 mph - N/A Snow Snow
2:00 AM 30.2 °F - 30.2 °F 100% 29.66 in 0.5 mi Variable 2.3 mph - N/A Snow Snow
2:01 AM 30.2 °F - 30.2 °F 100% 29.66 in 0.5 mi Variable 2.3 mph - N/A Snow Snow
2:02 AM 30.2 °F - 30.2 °F 100% 29.66 in 0.5 mi Variable 2.3 mph - N/A Snow Snow
2:25 AM 30.2 °F - 30.2 °F 100% 29.66 in 1.0 mi Variable 2.3 mph - N/A Snow Light Snow
3:00 AM 30.2 °F 26.7 °F 30.2 °F 100% 29.64 in 1.5 mi ENE 3.5 mph - N/A Snow Light Snow
3:06 AM 30.2 °F 26.7 °F 30.2 °F 100% 29.64 in 2.0 mi ENE 3.5 mph - N/A Snow Light Snow
3:11 AM 30.2 °F 25.4 °F 30.2 °F 100% 29.64 in 1.8 mi ENE 4.6 mph - N/A Snow Light Snow
3:38 AM 30.2 °F 25.4 °F 30.2 °F 100% 29.63 in 2.0 mi ENE 4.6 mph - N/A Snow Light Snow
3:55 AM 30.2 °F 25.4 °F 30.2 °F 100% 29.63 in 3.0 mi NE 4.6 mph - N/A Snow Light Snow
4:00 AM 30.2 °F 26.7 °F 30.2 °F 100% 29.63 in 3.0 mi NNE 3.5 mph - N/A Snow Light Snow
4:14 AM 30.2 °F - 30.2 °F 100% 29.64 in 3.0 mi NNE 2.3 mph - N/A Snow Light Snow
4:22 AM 30.2 °F 26.7 °F 30.2 °F 100% 29.64 in 7.0 mi North 3.5 mph - N/A   Overcast
4:45 AM 30.2 °F 25.4 °F 30.2 °F 100% 29.63 in 8.0 mi NE 4.6 mph - N/A   Overcast
5:00 AM 30.2 °F 26.7 °F 30.2 °F 100% 29.63 in 5.0 mi NW 3.5 mph - N/A   Overcast
5:01 AM 30.2 °F 26.7 °F 30.2 °F 100% 29.63 in 3.0 mi NW 3.5 mph - N/A Snow Light Snow
5:02 AM 30.2 °F 26.7 °F 30.2 °F 100% 29.63 in 2.5 mi NNW 3.5 mph - N/A Snow Light Snow
5:04 AM 30.2 °F 26.7 °F 30.2 °F 100% 29.63 in 1.5 mi NNW 3.5 mph - N/A Snow Light Snow
5:06 AM 30.2 °F 25.4 °F 30.2 °F 100% 29.63 in 1.0 mi North 4.6 mph - N/A Snow Light Snow
5:08 AM 30.2 °F 25.4 °F 30.2 °F 100% 29.63 in 0.8 mi North 4.6 mph - N/A Snow Light Snow
5:22 AM 30.2 °F 25.4 °F 30.2 °F 100% 29.63 in 0.6 mi North 4.6 mph - N/A Snow Light Snow
5:27 AM 30.2 °F - 30.2 °F 100% 29.63 in 0.5 mi North 2.3 mph - N/A Snow Snow
5:34 AM 30.2 °F 25.4 °F 30.2 °F 100% 29.62 in 0.2 mi North 4.6 mph - N/A Snow Heavy Snow
5:40 AM 30.2 °F 25.4 °F 30.2 °F 100% 29.62 in 0.2 mi North 4.6 mph - N/A Snow Heavy Snow
5:57 AM 30.2 °F 26.7 °F 30.2 °F 100% 29.62 in 0.4 mi North 3.5 mph - N/A Snow Snow
6:00 AM 30.2 °F 25.4 °F 30.2 °F 100% 29.62 in 0.5 mi North 4.6 mph - N/A Snow Snow
6:04 AM 30.2 °F 26.7 °F 30.2 °F 100% 29.62 in 1.0 mi North 3.5 mph - N/A Snow Light Snow
6:08 AM 30.2 °F 25.4 °F 30.2 °F 100% 29.62 in 2.0 mi North 4.6 mph - N/A Snow Light Snow
6:12 AM 30.2 °F 26.7 °F 30.2 °F 100% 29.62 in 3.0 mi North 3.5 mph - N/A Snow Light Snow
6:21 AM 30.2 °F 26.7 °F 30.2 °F 100% 29.62 in 3.0 mi NNW 3.5 mph - N/A Snow Light Snow
6:22 AM 30.2 °F 26.7 °F 30.2 °F 100% 29.63 in 3.0 mi NNW 3.5 mph - N/A Snow Light Snow
6:30 AM 30.2 °F 26.7 °F 30.2 °F 100% 29.62 in 2.2 mi NNW 3.5 mph - N/A Snow Light Snow
6:33 AM 30.2 °F 25.4 °F 30.2 °F 100% 29.62 in 1.8 mi NNW 4.6 mph - N/A Snow Light Snow
6:44 AM 30.2 °F 26.7 °F 30.2 °F 100% 29.62 in 2.0 mi NNW 3.5 mph - N/A Snow Light Snow
6:50 AM 30.2 °F 26.7 °F 30.2 °F 100% 29.63 in 3.0 mi NNW 3.5 mph - N/A Snow Light Snow
7:00 AM 30.2 °F - 30.2 °F 100% 29.63 in 3.0 mi NNW 2.3 mph - N/A Snow Light Snow
7:22 AM 30.2 °F 26.7 °F 30.2 °F 100% 29.63 in 2.5 mi NNW 3.5 mph - N/A Snow Light Snow
7:26 AM 30.2 °F 26.7 °F 30.2 °F 100% 29.63 in 1.8 mi NNW 3.5 mph - N/A Snow Light Snow
7:33 AM 30.2 °F 26.7 °F 30.2 °F 100% 29.64 in 1.5 mi NNW 3.5 mph - N/A Snow Light Snow
7:36 AM 30.2 °F 26.7 °F 30.2 °F 100% 29.64 in 2.0 mi NW 3.5 mph - N/A Snow Light Snow
7:42 AM 30.2 °F 25.4 °F 30.2 °F 100% 29.64 in 1.8 mi NW 4.6 mph - N/A Snow Light Snow
7:54 AM 32.0 °F 28.7 °F 30.2 °F 93% 29.64 in 2.0 mi WNW 3.5 mph - N/A Snow Light Snow
7:58 AM 32.0 °F 28.7 °F 30.2 °F 93% 29.64 in 3.0 mi WNW 3.5 mph - N/A Snow Light Snow
8:00 AM 32.0 °F 28.7 °F 30.2 °F 93% 29.64 in 4.0 mi WNW 3.5 mph - N/A Snow Light Snow
8:05 AM 32.0 °F 27.5 °F 30.2 °F 93% 29.64 in 6.0 mi WNW 4.6 mph - N/A Snow Light Snow
8:26 AM 32.0 °F 28.7 °F 32.0 °F 100% 29.65 in 9.0 mi WNW 3.5 mph - N/A Snow Light Snow
8:29 AM 32.0 °F 28.7 °F 32.0 °F 100% 29.64 in 9.0 mi NW 3.5 mph - N/A Rain Light Rain
8:35 AM 32.0 °F 28.7 °F 32.0 °F 100% 29.65 in 9.0 mi WNW 3.5 mph - N/A Rain Light Rain
8:45 AM 33.8 °F 28.6 °F 32.0 °F 93% 29.65 in 9.0 mi North 5.8 mph - N/A   Overcast
9:00 AM 33.8 °F 24.8 °F 30.2 °F 87% 29.65 in 9.0 mi North 12.7 mph - N/A   Overcast
9:05 AM 35.6 °F 27.5 °F 30.2 °F 81% 29.65 in 9.0 mi North 11.5 mph 17.3 mph N/A Rain Light Rain
9:23 AM 33.8 °F 23.5 °F 30.2 °F 87% 29.66 in 7.0 mi North 16.1 mph - N/A Rain , Snow Light Snow
9:25 AM 33.8 °F 23.9 °F 30.2 °F 87% 29.66 in 5.0 mi North 15.0 mph 21.9 mph N/A Rain , Snow Light Snow
9:28 AM 33.8 °F 23.9 °F 30.2 °F 87% 29.66 in 3.0 mi North 15.0 mph 21.9 mph N/A Snow Light Snow
9:30 AM 33.8 °F 24.3 °F 30.2 °F 87% 29.66 in 2.5 mi North 13.8 mph 21.9 mph N/A Snow Light Snow
9:41 AM 33.8 °F 25.8 °F 32.0 °F 93% 29.66 in 3.0 mi North 10.4 mph 17.3 mph N/A Snow Light Snow
9:44 AM 33.8 °F 27.7 °F 32.0 °F 93% 29.67 in 4.0 mi North 6.9 mph - N/A Snow Light Snow
9:46 AM 33.8 °F 26.4 °F 32.0 °F 93% 29.67 in 6.0 mi NNE 9.2 mph - N/A Snow Light Snow
9:47 AM 33.8 °F 26.4 °F 32.0 °F 93% 29.67 in 8.0 mi NNE 9.2 mph - N/A Rain , Snow Light Snow
9:49 AM 33.8 °F 26.4 °F 32.0 °F 93% 29.67 in 9.0 mi NNE 9.2 mph - N/A Rain Light Rain
9:51 AM 35.6 °F 28.6 °F 32.0 °F 87% 29.67 in 9.0 mi NNE 9.2 mph - N/A Rain Light Rain
9:52 AM 35.6 °F 28.0 °F 32.0 °F 87% 29.67 in 9.0 mi NNE 10.4 mph - N/A Rain Light Rain
9:59 AM 35.6 °F 28.6 °F 32.0 °F 87% 29.67 in 9.0 mi North 9.2 mph - N/A   Overcast
10:00 AM 35.6 °F 28.6 °F 32.0 °F 87% 29.67 in 9.0 mi North 9.2 mph - N/A   Overcast
10:24 AM 35.6 °F 27.1 °F 32.0 °F 87% 29.69 in 9.0 mi NNE 12.7 mph - N/A   Overcast
10:25 AM 35.6 °F 26.6 °F 32.0 °F 87% 29.69 in 9.0 mi NNE 13.8 mph - N/A   Overcast
10:32 AM 35.6 °F 27.1 °F 32.0 °F 87% 29.69 in 9.0 mi NNE 12.7 mph - N/A   Overcast
10:41 AM 35.6 °F 27.5 °F 32.0 °F 87% 29.70 in 9.0 mi ENE 11.5 mph - N/A Rain Light Rain
10:54 AM 33.8 °F 25.8 °F 32.0 °F 93% 29.71 in 5.0 mi ENE 10.4 mph - N/A Rain , Snow Light Snow
10:59 AM 33.8 °F 26.4 °F 32.0 °F 93% 29.71 in 4.0 mi ENE 9.2 mph - N/A Snow Light Snow
11:00 AM 33.8 °F 25.8 °F 32.0 °F 93% 29.71 in 4.0 mi ENE 10.4 mph - N/A Snow Light Snow
11:11 AM 35.6 °F 29.2 °F 33.8 °F 93% 29.71 in 6.0 mi NE 8.1 mph - N/A Snow Light Snow
11:14 AM 35.6 °F 29.2 °F 33.8 °F 93% 29.71 in 9.0 mi NE 8.1 mph - N/A Rain , Snow Light Snow
11:16 AM 35.6 °F 28.6 °F 33.8 °F 93% 29.72 in 9.0 mi NE 9.2 mph - N/A Rain Light Rain
11:25 AM 35.6 °F 28.6 °F 33.8 °F 93% 29.72 in 9.0 mi NNE 9.2 mph 18.4 mph N/A   Overcast
11:34 AM 37.4 °F 29.3 °F 33.8 °F 87% 29.73 in 9.0 mi ENE 12.7 mph 18.4 mph N/A   Overcast
11:37 AM 35.6 °F 27.5 °F 33.8 °F 93% 29.73 in 9.0 mi ENE 11.5 mph 18.4 mph N/A Rain Light Rain
11:43 AM 37.4 °F 30.3 °F 33.8 °F 87% 29.73 in 9.0 mi NE 10.4 mph 18.4 mph N/A Rain Light Rain
12:02 PM 37.4 °F 30.8 °F 33.8 °F 87% 29.74 in 9.0 mi NE 9.2 mph - N/A   Overcast
12:12 PM 35.6 °F 25.5 °F 32.0 °F 87% 29.75 in 9.0 mi NE 17.3 mph - N/A Rain Light Rain
12:18 PM 33.8 °F 24.3 °F 32.0 °F 93% 29.75 in 7.0 mi ENE 13.8 mph 20.7 mph N/A Rain Light Rain
12:22 PM 33.8 °F 25.8 °F 32.0 °F 93% 29.75 in 6.0 mi NE 10.4 mph 17.3 mph N/A Rain Light Rain
12:39 PM 37.4 °F 32.8 °F 32.0 °F 81% 29.75 in 9.0 mi NE 5.8 mph - N/A   Overcast
12:44 PM 37.4 °F 30.3 °F 30.2 °F 75% 29.75 in 9.0 mi NE 10.4 mph - N/A Rain Light Rain
12:54 PM 37.4 °F 30.8 °F 30.2 °F 75% 29.75 in 9.0 mi NE 9.2 mph - N/A   Overcast
1:00 PM 39.2 °F 33.6 °F 30.2 °F 70% 29.76 in 9.0 mi NE 8.1 mph - N/A   Overcast
1:06 PM 37.4 °F 32.1 °F 28.4 °F 70% 29.76 in 9.0 mi ENE 6.9 mph - N/A Rain Light Rain
1:17 PM 37.4 °F 32.8 °F 30.2 °F 75% 29.76 in 9.0 mi NNE 5.8 mph - N/A   Overcast
1:35 PM 37.4 °F 29.8 °F 28.4 °F 70% 29.77 in 9.0 mi North 11.5 mph 17.3 mph N/A Rain Light Rain
1:49 PM 39.2 °F 33.0 °F 26.6 °F 61% 29.77 in 9.0 mi NNE 9.2 mph - N/A   Overcast
2:00 PM 41.0 °F 35.2 °F 26.6 °F 57% 29.78 in 9.0 mi North 9.2 mph - N/A   Overcast
2:08 PM 37.4 °F 28.9 °F 28.4 °F 70% 29.78 in 9.0 mi North 13.8 mph 20.7 mph N/A Rain Light Rain
2:15 PM 35.6 °F 30.7 °F 28.4 °F 75% 29.79 in 7.0 mi NNW 5.8 mph 20.7 mph N/A Rain Light Rain
2:20 PM 35.6 °F 32.8 °F 28.4 °F 75% 29.78 in 7.0 mi WNW 3.5 mph - N/A   Overcast
2:30 PM 39.2 °F 34.2 °F 26.6 °F 61% 29.78 in 9.0 mi NNW 6.9 mph - N/A   Mostly Cloudy
2:34 PM 39.2 °F 35.0 °F 26.6 °F 61% 29.78 in 9.0 mi North 5.8 mph - N/A Rain Light Rain
2:44 PM 41.0 °F 33.1 °F 24.8 °F 53% 29.79 in 9.0 mi North 15.0 mph 20.7 mph N/A   Mostly Cloudy
3:00 PM 41.0 °F 34.7 °F 24.8 °F 53% 29.80 in 9.0 mi North 10.4 mph 20.7 mph N/A   Mostly Cloudy
3:17 PM 39.2 °F 31.2 °F 24.8 °F 56% 29.81 in 9.0 mi North 13.8 mph 25.3 mph N/A Rain Light Rain
3:26 PM 41.0 °F 33.1 °F 23.0 °F 49% 29.81 in 9.0 mi North 15.0 mph - N/A   Mostly Cloudy
4:00 PM 41.0 °F 32.2 °F 19.4 °F 42% 29.82 in 9.0 mi NNW 18.4 mph - N/A   Scattered Clouds
5:00 PM 39.2 °F 30.8 °F 19.4 °F 45% 29.84 in 9.0 mi NNW 15.0 mph 23.0 mph N/A   Mostly Cloudy
6:00 PM 37.4 °F 29.3 °F 17.6 °F 45% 29.87 in 9.0 mi North 12.7 mph - N/A   Partly Cloudy
7:00 PM 35.6 °F 29.2 °F 15.8 °F 44% 29.88 in 9.0 mi NNW 8.1 mph - N/A   Clear
8:00 PM 32.0 °F 26.4 °F 14.0 °F 48% 29.90 in 9.0 mi NNW 5.8 mph - N/A   Clear
9:00 PM 33.8 °F 25.3 °F 10.4 °F 38% 29.92 in 9.0 mi NNW 11.5 mph 19.6 mph N/A   Clear
10:00 PM 32.0 °F 22.5 °F 12.2 °F 44% 29.93 in 9.0 mi North 12.7 mph 23.0 mph N/A   Clear
11:00 PM 30.2 °F 18.9 °F 14.0 °F 51% 29.95 in 9.0 mi NNW 16.1 mph - N/A   Overcast